Weather in Bangkok

Thailand     13°45′32″N   100°31′57″E
temp.,
°C
wind,
m/s
gust,
m/s
humid.,
%
clouds,
%
prec.,
mm/h
press.,
hPa
HPBL,
m
13 june, sun
sun1301:00+28sw3863100 0.0 1006575
04:00+26w2578100 1.2 1006246
07:00+26w1280100 1.5 1007154
10:00+29wsw4766100 0.0 1008993
13:00+30w2458100 0.0 1006866
16:00+28wnw2367100 0.9 1005259
19:00+28wnw1570100 1.1 1007324
22:00+27sw2572100 0.0 1008157
14 june, mon
mon1401:00+27wsw2573100 0.0 1007182
04:00+27sw2672100 0.0 1006288
07:00+28ssw2672100 0.0 1008371
10:00+31sw465398 0.0 10081387
13:00+33s6748100 0.0 10061679
16:00+31s5757100 0.0 1004762
19:00+30wsw61057100 0.0 10061074
22:00+29wsw3860100 0.0 10081148
15 june, tue
tue1501:00+29sw2663100 0.1 1006896
04:00+27sw1475100 1.3 1006274
07:00+27sw2776100 1.7 1007747
10:00+27w5977100 0.6 1009804
13:00+27wnw2573100 0.6 1007563
16:00+29sw3462100 0.0 1006974
19:00+28s2469100 0.0 1006308
22:00+28sse1271100 0.0 1008131
16 june, wed
wed1601:00+28ssw2472100 0.0 1006150
04:00+28ssw2770100 0.0 1006318
07:00+28ssw2671100 0.0 1008331
10:00+29sw3765100 0.1 1009939
13:00+30wsw5662100 0.1 1008958
16:00+28wsw3571100 0.5 1008632
19:00+28wnw2375100 0.7 1008333
22:00+27wsw2475100 0.0 1009287
17 june, thu
thu1701:00+27sw2474100 0.0 1009215
04:00+27ssw237295 0.0 1008112
07:00+27wsw237195 0.0 1009201
10:00+31sw2353100 0.0 10101062
13:00+35sw344496 0.1 10082156
16:00+33wsw4452100 0.5 10071329
19:00+29s4673100 2.8 1008285
22:00+28sw257499 0.6 1010363